Newburgh, NY

12:57 AM EDT on September 25, 2017 (GMT -0400)
Stewart International

Weather History for KSWF - December, 2013

Change the Weather History Date:

Monday, December 9, 2013

  Actual Average Record
Temperature  
Mean Temperature 30 °F -  
Max Temperature 33 °F 40 °F 60 °F (1980)
Min Temperature 26 °F 24 °F 3 °F (2002)
Degree Days  
Heating Degree Days 36    
Moisture  
Dew Point 30 °F    
Average Humidity 99    
Maximum Humidity 100    
Minimum Humidity 93    
Precipitation  
Precipitation 0.00 in - - ()
Sea Level Pressure  
Sea Level Pressure 30.10 in    
Wind  
Wind Speed 8 mph (North)    
Max Wind Speed 12 mph    
Max Gust Speed -    
Visibility 3 miles    
Events      
Averages and records for this station are not official NWS values.
T = Trace of Precipitation, MM = Missing Value Source: NWS Daily Summary

Daily Weather History Graph

Daily Weather History Graph

Search for Another Location

Airport or City:

Trip Planner

Search our weather history database for the weather conditions in past years. The results will help you decide how hot, cold, wet, or windy it might be!

Date:

Astronomy

Dec. 09, 2013 Rise Set
Actual Time 7:11 AM EST 4:26 PM EST
Civil Twilight 6:40 AM EST 4:57 PM EST
Nautical Twilight 6:05 AM EST 5:32 PM EST
Astronomical Twilight 5:31 AM EST 6:06 PM EST
Moon 11:58 AM EST (12/9) No Moon Set
Length of Visible Light 10h 17m
Length of Day
9h 15m
Waxing Crescent, 51% of the Moon is Illuminated
Dec 9
Waxing Crescent
Dec 17
Full
Dec 25
Last Quarter
Jan 1
New
Jan 7
First Quarter

Hourly Weather History & Observations

Time (EST) Temp. Windchill Dew Point Humidity Pressure Visibility Wind Dir Wind Speed Gust Speed Precip Events Conditions
12:45 AM 26.6 °F 17.5 °F 26.6 °F 100% 30.37 in 1.5 mi East 9.2 mph - N/A   Light Freezing Drizzle
1:45 AM 26.6 °F 16.2 °F 26.6 °F 100% 30.34 in 2.0 mi ENE 11.5 mph - N/A   Light Freezing Drizzle
2:45 AM 26.6 °F 16.2 °F 26.6 °F 100% 30.32 in 2.0 mi ENE 11.5 mph - N/A   Overcast
3:45 AM 26.6 °F 17.5 °F 26.6 °F 100% 30.29 in 2.0 mi ENE 9.2 mph - N/A   Overcast
4:45 AM 26.6 °F 16.2 °F 26.6 °F 100% 30.25 in 2.0 mi ENE 11.5 mph - N/A   Overcast
5:45 AM 28.4 °F 21.2 °F 28.4 °F 100% 30.23 in 2.0 mi East 6.9 mph - N/A   Overcast
6:45 AM 28.4 °F 21.2 °F 28.4 °F 100% 30.20 in 2.5 mi ENE 6.9 mph - N/A   Light Freezing Rain
7:50 AM 28.4 °F 21.2 °F 28.4 °F 100% 30.18 in 3.0 mi ENE 6.9 mph - N/A   Overcast
8:45 AM 30.2 °F - 30.2 °F 100% 30.16 in 2.5 mi North - - N/A   Light Freezing Drizzle
8:50 AM 30.2 °F 23.4 °F 30.2 °F 100% 30.16 in 2.5 mi NE 6.9 mph - N/A   Light Freezing Drizzle
9:45 AM 30.2 °F 23.4 °F 30.2 °F 100% 30.13 in 2.5 mi NE 6.9 mph - N/A   Overcast
10:45 AM 32.0 °F 25.6 °F 32.0 °F 100% 30.09 in 1.5 mi NE 6.9 mph - N/A   Light Drizzle
11:45 AM 32.0 °F 25.6 °F 32.0 °F 100% 30.02 in 1.8 mi NNE 6.9 mph - N/A   Light Drizzle
12:45 PM 32.0 °F 25.6 °F 32.0 °F 100% 30.00 in 0.8 mi North 6.9 mph - N/A   Light Drizzle
1:45 PM 32.0 °F 26.4 °F 32.0 °F 100% 29.97 in 1.2 mi North 5.8 mph - N/A   Light Drizzle
2:45 PM 32.0 °F 26.4 °F 32.0 °F 100% 29.99 in 2.0 mi West 5.8 mph - N/A   Light Drizzle
3:45 PM 32.0 °F 26.4 °F 32.0 °F 100% 29.98 in 2.0 mi West 5.8 mph - N/A   Overcast
4:45 PM 32.0 °F 26.4 °F 32.0 °F 100% 29.97 in 2.0 mi WSW 5.8 mph - N/A   Overcast
5:45 PM - - - N/A% 29.97 in 2.0 mi WSW 6.9 mph - N/A   Overcast
6:45 PM 32.0 °F 26.4 °F 32.0 °F 100% 29.97 in 2.0 mi West 5.8 mph - N/A   Overcast
7:45 PM 33.8 °F 26.4 °F 33.8 °F 100% 29.98 in 5.0 mi WSW 9.2 mph - N/A   Scattered Clouds
8:45 PM 33.8 °F 27.7 °F 32.0 °F 93% 29.97 in 10.0 mi WSW 6.9 mph - N/A   Clear
9:45 PM 33.8 °F 27.0 °F 32.0 °F 93% 29.97 in 10.0 mi SW 8.1 mph - N/A   Clear
10:45 PM 33.8 °F 25.3 °F 32.0 °F 93% 29.98 in 10.0 mi West 11.5 mph - N/A   Clear
11:45 PM 32.0 °F 25.6 °F 32.0 °F 100% 29.98 in 10.0 mi West 6.9 mph - N/A   Clear